Location: Camps Bay
(33.9517°S, 18.3844°E)
Time: 17:21:26
(UTC+00:00)

Spot 2 - Pass Details

Date: 18 January 2020
Orbit: 569 x 775 km, 98.7° (Epoch: 27 February)

Event Time Altitude Azimuth Distance (km) Brightness Sun altitude
Exits shadow 02:21:47 22° 356° (N) 1,262 5.2 -16.7°
Maximum altitude 02:24:13 60° 282° (WNW) 667 3.9 -16.4°
Drops below altitude 10° 02:28:21 10° 201° (SSW) 1,935 6.8 -15.7°
Sets 02:30:35 0° 197° (SSW) 2,866 7.8 -15.3°
